Location: Culleoka
(33.1312°N, 96.4919°W)
Time: 22:20:08
(UTC+00:00)

Lacrosse 5 rocket - Pass Details

Date: 11 July 2022
Orbit: 456 x 628 km, 57.0° (Epoch: 08 August)

Event Time Altitude Azimuth Distance (km) Brightness Sun altitude
Rises 02:01:19 0° 301° (WNW) 2,594 7.9 -5.2°
Reaches altitude 10° 02:04:00 10° 281° (W) 1,741 5.3 -5.7°
Maximum altitude 02:06:38 17° 239° (WSW) 1,374 3.7 -6.1°
Drops below altitude 10° 02:09:20 10° 197° (SSW) 1,805 3.8 -6.6°
Sets 02:12:12 0° 178° (S) 2,734 4.5 -7.1°
